Location: Krasnoyarskiy Pitomnik
(51.1333°N, 71.6167°E)
Time: 08:46:05
(UTC+00:00)

CZ-4 R/B - Pass Details

Date: 22 October 2021
Orbit: 580 x 588 km, 97.7° (Epoch: 06 December)

Event Time Altitude Azimuth Distance (km) Brightness Sun altitude
Rises 13:23:47 0° 165° (SSE) 2,802 7.8 -12.8°
Reaches altitude 10° 13:25:56 10° 165° (SSE) 1,905 6.9 -13.1°
Maximum altitude 13:30:04 89° 248° (WSW) 593 4.4 -13.8°
Drops below altitude 10° 13:34:14 10° 346° (NNW) 1,916 7.3 -14.4°
Sets 13:36:24 0° 347° (NNW) 2,820 8.1 -14.8°
